Precipitable_Water
1.28 1.22 1.16 1.13 1.10 1.11 1.24 1.30 1.38 1.43 1.51 1.45 1.43 1.38 1.47 1.50 1.44 1.35 1.20 1.26 1.26 1.25
1.15 1.22 1.09 1.06 1.16 1.13 1.17 1.30 1.36 1.44 1.48 1.53 1.47 1.37 1.33 1.47 1.38 1.42 1.32 1.13 1.20 1.20
1.01 1.04 1.15 1.10 1.02 1.15 1.12 1.17 1.36 1.37 1.46 1.50 1.46 1.41 1.32 1.36 1.46 1.38 1.40 1.32 1.21 1.14
1.08 1.04 1.10 1.13 1.06 1.09 1.17 1.18 1.17 1.31 1.39 1.39 1.42 1.44 1.35 1.23 1.36 1.41 1.42 1.45 1.37 1.26
1.16 1.14 1.11 1.15 1.16 1.04 1.09 1.14 1.26 1.26 1.30 1.38 1.38 1.45 1.48 1.28 1.19 1.27 1.33 1.36 1.38 1.32
1.16 1.21 1.14 1.14 1.11 1.14 1.04 1.09 1.18 1.38 1.37 1.36 1.39 1.36 1.36 1.34 1.18 1.09 1.21 1.31 1.34 1.33
1.15 1.18 1.22 1.19 1.12 1.08 1.12 1.07 1.17 1.25 1.39 1.41 1.36 1.37 1.38 1.34 1.30 1.25 1.14 1.23 1.31 1.33
1.43 1.40 1.36 1.29 1.23 1.22 1.17 1.22 1.21 1.22 1.30 1.40 1.47 1.46 1.41 1.36 1.29 1.22 1.22 1.21 1.20 1.28
1.50 1.54 1.54 1.44 1.37 1.30 1.24 1.24 1.27 1.27 1.28 1.31 1.39 1.48 1.49 1.45 1.40 1.33 1.24 1.16 1.18 1.23
1.59 1.56 1.56 1.58 1.55 1.46 1.38 1.38 1.29 1.30 1.33 1.31 1.38 1.48 1.53 1.55 1.54 1.52 1.49 1.38 1.29 1.25
1.50 1.52 1.63 1.65 1.62 1.62 1.57 1.51 1.49 1.50 1.48 1.47 1.48 1.52 1.53 1.60 1.65 1.63 1.64 1.66 1.62 1.53
1.46 1.47 1.53 1.57 1.61 1.69 1.70 1.66 1.60 1.62 1.61 1.56 1.59 1.67 1.65 1.68 1.69 1.68 1.67 1.75 1.79 1.79
1.46 1.44 1.43 1.48 1.53 1.64 1.68 1.66 1.75 1.69 1.69 1.64 1.59 1.72 1.77 1.83 1.80 1.69 1.67 1.78 1.79 1.82
1.37 1.37 1.36 1.41 1.49 1.55 1.60 1.65 1.66 1.67 1.72 1.72 1.71 1.77 1.86 1.91 1.88 1.78 1.76 1.74 1.71 1.80
Wind_Speed
23 21 20 18 17 16 15 14 13 12 12 11 10 9 9 8 7 6 5 5 3 2
25 22 21 20 18 16 16 15 14 14 13 12 11 10 11 11 10 9 8 7 6 5
25 24 21 21 21 18 17 18 15 16 16 15 13 12 12 12 12 12 12 10 9 8
25 24 23 21 21 21 19 17 19 17 16 17 15 14 14 14 15 15 15 14 13 12
24 24 23 22 21 21 20 19 17 18 17 16 16 16 15 14 16 17 17 17 17 16
25 24 23 23 22 20 21 20 19 17 17 16 16 16 16 16 16 17 18 19 19 18
24 23 22 22 22 22 20 20 19 18 16 16 16 16 16 17 17 17 18 18 20 21
24 23 21 21 21 21 21 20 20 20 19 18 17 16 16 15 16 17 17 18 21 22
25 24 24 22 22 21 21 21 21 21 21 21 19 19 18 18 17 17 18 19 20 21
25 25 25 25 24 24 23 22 22 23 22 22 22 21 21 21 20 19 19 20 21 22
24 24 25 25 26 25 25 25 24 23 23 23 23 23 24 24 24 23 23 24 24 24
26 25 24 24 25 26 26 26 26 26 25 26 25 25 26 26 27 28 28 28 28 28
28 27 27 26 26 26 28 28 27 28 27 27 27 28 28 29 29 30 31 32 32 33
30 30 30 29 28 27 28 28 29 30 30 29 29 29 29 30 31 32 33 34 34 35
Wind_Direction
210 211 212 213 216 218 219 221 222 225 225 226 227 226 224 221 217 211 212 206 199 181
212 213 215 217 219 222 224 226 227 228 227 229 232 234 231 228 226 225 226 225 227 232
213 215 218 220 223 226 229 229 232 232 232 233 236 237 236 233 233 232 233 234 236 240
214 217 219 222 226 227 230 231 232 234 234 234 235 237 239 240 237 237 238 239 242 246
214 216 219 224 226 227 229 230 231 233 234 234 235 237 242 244 243 241 242 243 245 247
214 217 221 224 225 226 227 228 229 231 231 233 235 238 242 246 246 245 245 245 245 248
213 217 222 223 224 225 225 226 228 229 232 234 237 241 244 246 248 248 248 247 247 250
216 219 220 221 221 223 226 228 231 233 234 237 240 243 244 246 247 248 250 253 253 254
220 221 222 223 224 227 229 231 233 233 237 240 242 244 245 246 247 250 253 257 258 260
221 223 225 227 229 230 232 234 235 236 238 241 244 245 246 246 249 253 256 260 262 262
221 224 227 230 232 233 235 236 237 237 239 244 246 247 247 248 250 256 260 262 263 265
224 227 230 232 234 236 238 238 238 241 243 246 249 250 250 251 254 258 261 264 265 267
228 231 234 237 239 240 240 240 242 244 246 249 252 253 253 254 257 260 264 266 268 269
231 234 238 240 242 243 242 244 244 247 248 251 253 255 256 257 259 263 266 268 271 272